| time (UTC) | temp C | wind direction | speed KPH | gust KPH | rain 1hr cm | rain 24hr cm | rain mn cm | humidity % | barometer mb |
| 20260507174520 | 20 | 340 | 3.2 | 16.1 | 0.00 | 0.10 | 0.10 | 36 | 1009.2 |
| 20260507174014 | 19 | 340 | 3.2 | 16.1 | 0.00 | 0.10 | 0.10 | 34 | 1009.3 |
| 20260507173519 | 19 | 106 | 1.6 | 9.7 | 0.00 | 0.10 | 0.10 | 35 | 1009.5 |
| 20260507173021 | 19 | 96 | 0.0 | 9.7 | 0.00 | 0.10 | 0.10 | 34 | 1009.5 |
| 20260507172511 | 19 | 84 | 0.0 | 8.0 | 0.00 | 0.10 | 0.10 | 36 | 1009.6 |
| 20260507172010 | 19 | 304 | 1.6 | 8.0 | 0.00 | 0.10 | 0.10 | 39 | 1009.8 |
| 20260507171509 | 18 | 309 | 0.0 | 4.8 | 0.00 | 0.10 | 0.10 | 42 | 1009.8 |
| 20260507171014 | 18 | 336 | 0.0 | 6.4 | 0.00 | 0.10 | 0.10 | 41 | 1009.9 |
| 20260507170508 | 18 | 272 | 1.6 | 6.4 | 0.00 | 0.10 | 0.10 | 38 | 1009.9 |
| 20260507170023 | 18 | 185 | 1.6 | 6.4 | 0.00 | 0.10 | 0.10 | 40 | 1010.1 |
| 20260507165506 | 17 | 328 | 0.0 | 3.2 | 0.00 | 0.10 | 0.10 | 44 | 1010.1 |
| 20260507165006 | 17 | 307 | 0.0 | 4.8 | 0.00 | 0.10 | 0.10 | 39 | 1010.2 |
| 20260507164506 | 17 | 94 | 0.0 | 6.4 | 0.00 | 0.10 | 0.10 | 41 | 1010.3 |
| 20260507164006 | 17 | 98 | 0.0 | 6.4 | 0.00 | 0.10 | 0.10 | 41 | 1010.3 |
| 20260507163504 | 17 | 275 | 0.0 | 8.0 | 0.00 | 0.10 | 0.10 | 41 | 1010.3 |
| 20260507163004 | 17 | 111 | 1.6 | 8.0 | 0.00 | 0.10 | 0.10 | 41 | 1010.5 |
| 20260507162502 | 17 | 328 | 0.0 | 4.8 | 0.00 | 0.10 | 0.10 | 40 | 1010.7 |
| 20260507162001 | 16 | 309 | 0.0 | 9.7 | 0.00 | 0.10 | 0.10 | 43 | 1010.6 |
| 20260507161605 | 16 | 80 | 1.6 | 9.7 | 0.00 | 0.10 | 0.10 | 45 | 1010.6 |
| 20260507161100 | 15 | 121 | 1.6 | 9.7 | 0.00 | 0.10 | 0.10 | 46 | 1010.7 |
| 20260507160559 | 16 | 146 | 3.2 | 9.7 | 0.00 | 0.10 | 0.10 | 47 | 1010.8 |
| 20260507160059 | 15 | 153 | 3.2 | 8.0 | 0.00 | 0.10 | 0.10 | 45 | 1010.9 |
| 20260507155557 | 15 | 143 | 1.6 | 9.7 | 0.00 | 0.10 | 0.10 | 44 | 1011.0 |
| 20260507155101 | 15 | 106 | 0.0 | 4.8 | 0.00 | 0.10 | 0.10 | 47 | 1010.9 |
| 20260507154559 | 15 | 81 | 0.0 | 4.8 | 0.00 | 0.10 | 0.10 | 46 | 1011.1 |
| 20260507154057 | 15 | 110 | 0.0 | 8.0 | 0.00 | 0.10 | 0.10 | 48 | 1011.2 |
| 20260507153555 | 15 | 103 | 1.6 | 8.0 | 0.00 | 0.10 | 0.10 | 47 | 1011.2 |
| 20260507153105 | 15 | 75 | 1.6 | 12.9 | 0.00 | 0.10 | 0.10 | 50 | 1011.3 |
| 20260507152554 | 14 | 339 | 1.6 | 12.9 | 0.00 | 0.10 | 0.10 | 50 | 1011.3 |
| 20260507152055 | 14 | 308 | 0.0 | 3.2 | 0.00 | 0.10 | 0.10 | 51 | 1011.4 |
| 20260507151555 | 13 | 336 | 0.0 | 6.4 | 0.00 | 0.10 | 0.10 | 53 | 1011.4 |
| 20260507151054 | 13 | 99 | 1.6 | 9.7 | 0.00 | 0.10 | 0.10 | 51 | 1011.4 |
| 20260507150554 | 13 | 97 | 1.6 | 9.7 | 0.00 | 0.10 | 0.10 | 51 | 1011.6 |
| 20260507145556 | 13 | 31 | 0.0 | 6.4 | 0.00 | 0.18 | 0.10 | 55 | 1011.7 |
| 20260507145053 | 13 | 106 | 0.0 | 9.7 | 0.00 | 0.18 | 0.10 | 55 | 1011.9 |
| 20260507144553 | 12 | 82 | 1.6 | 9.7 | 0.00 | 0.18 | 0.10 | 55 | 1011.9 |
| 20260507144054 | 12 | 58 | 0.0 | 8.0 | 0.00 | 0.18 | 0.10 | 56 | 1011.8 |
| 20260507143553 | 12 | 112 | 1.6 | 9.7 | 0.00 | 0.18 | 0.10 | 57 | 1011.7 |
| 20260507143104 | 12 | 85 | 1.6 | 9.7 | 0.00 | 0.18 | 0.10 | 57 | 1011.9 |
| 20260507142552 | 12 | 316 | 0.0 | 8.0 | 0.00 | 0.18 | 0.10 | 57 | 1012.0 |
| 20260507142051 | 12 | 65 | 0.0 | 8.0 | 0.00 | 0.18 | 0.10 | 57 | 1012.0 |
| 20260507141552 | 12 | 103 | 0.0 | 6.4 | 0.00 | 0.18 | 0.10 | 57 | 1012.0 |
| 20260507141051 | 12 | 81 | 0.0 | 6.4 | 0.00 | 0.18 | 0.10 | 58 | 1012.1 |
| 20260507140552 | 12 | 80 | 0.0 | 3.2 | 0.00 | 0.18 | 0.10 | 58 | 1012.2 |
| 20260507140054 | 12 | 327 | 0.0 | 1.6 | 0.00 | 0.18 | 0.10 | 63 | 1012.2 |
| 20260507135551 | 12 | 1 | 0.0 | 4.8 | 0.00 | 0.43 | 0.10 | 60 | 1012.4 |
| 20260507135051 | 12 | 341 | 0.0 | 4.8 | 0.00 | 0.43 | 0.10 | 59 | 1012.4 |
| 20260507134550 | 12 | 98 | 0.0 | 6.4 | 0.00 | 0.43 | 0.10 | 61 | 1012.6 |
| 20260507134051 | 12 | 98 | 0.0 | 6.4 | 0.00 | 0.43 | 0.10 | 60 | 1012.3 |
| 20260507133550 | 12 | 106 | 0.0 | 8.0 | 0.00 | 0.43 | 0.10 | 60 | 1012.3 |
| 20260507133050 | 12 | 120 | 0.0 | 6.4 | 0.00 | 0.43 | 0.10 | 62 | 1012.3 |
| 20260507132548 | 12 | 33 | 0.0 | 8.0 | 0.00 | 0.43 | 0.10 | 63 | 1012.4 |
| 20260507132051 | 12 | 359 | 1.6 | 8.0 | 0.00 | 0.43 | 0.10 | 62 | 1012.4 |
| 20260507131551 | 12 | 115 | 0.0 | 8.0 | 0.00 | 0.43 | 0.10 | 64 | 1012.3 |
| 20260507131048 | 12 | 119 | 0.0 | 8.0 | 0.00 | 0.43 | 0.10 | 64 | 1012.2 |
| 20260507130548 | 11 | 25 | 0.0 | 3.2 | 0.00 | 0.43 | 0.10 | 67 | 1012.3 |
| 20260507130100 | 11 | 65 | 0.0 | 3.2 | 0.00 | 0.43 | 0.10 | 66 | 1012.3 |
| 20260507125547 | 11 | 113 | 0.0 | 6.4 | 0.00 | 0.58 | 0.10 | 68 | 1012.3 |
| 20260507125047 | 11 | 94 | 0.0 | 6.4 | 0.00 | 0.58 | 0.10 | 67 | 1012.5 |
| 20260507124555 | 11 | 51 | 0.0 | 1.6 | 0.00 | 0.58 | 0.10 | 70 | 1012.5 |
| 20260507124048 | 12 | 16 | 0.0 | 3.2 | 0.00 | 0.58 | 0.10 | 71 | 1012.5 |
| 20260507123546 | 11 | 90 | 0.0 | 3.2 | 0.00 | 0.58 | 0.10 | 70 | 1012.4 |
| 20260507123046 | 11 | 90 | 0.0 | 3.2 | 0.00 | 0.58 | 0.10 | 70 | 1012.3 |
| 20260507122543 | 11 | 49 | 0.0 | 1.6 | 0.00 | 0.58 | 0.10 | 71 | 1012.3 |
| 20260507122044 | 11 | 49 | 0.0 | 1.6 | 0.00 | 0.58 | 0.10 | 71 | 1012.2 |
| 20260507121547 | 11 | 91 | 0.0 | 1.6 | 0.00 | 0.58 | 0.10 | 70 | 1012.2 |
| 20260507121043 | 11 | 84 | 0.0 | 1.6 | 0.00 | 0.58 | 0.10 | 72 | 1012.2 |
| 20260507120543 | 11 | 84 | 0.0 | 1.6 | 0.00 | 0.58 | 0.10 | 73 | 1012.2 |
| 20260507120043 | 11 | 337 | 0.0 | 1.6 | 0.00 | 0.58 | 0.10 | 72 | 1012.2 |
| 20260507115542 | 11 | 337 | 0.0 | 1.6 | 0.00 | 0.66 | 0.10 | 71 | 1012.1 |
| 20260507115041 | 11 | 106 | 0.0 | 4.8 | 0.00 | 0.66 | 0.10 | 71 | 1012.0 |
| 20260507114541 | 11 | 81 | 0.0 | 4.8 | 0.00 | 0.66 | 0.10 | 70 | 1012.0 |
| 20260507114040 | 11 | 138 | 0.0 | 1.6 | 0.00 | 0.66 | 0.10 | 69 | 1012.0 |
| 20260507113542 | 11 | 138 | 0.0 | 4.8 | 0.00 | 0.66 | 0.10 | 70 | 1011.9 |
| 20260507113045 | 11 | 101 | 0.0 | 4.8 | 0.00 | 0.66 | 0.10 | 71 | 1011.9 |
| 20260507112542 | 11 | 112 | 0.0 | 6.4 | 0.00 | 0.66 | 0.10 | 70 | 1011.8 |
| 20260507112042 | 11 | 115 | 0.0 | 6.4 | 0.00 | 0.66 | 0.10 | 71 | 1011.6 |
| 20260507111539 | 11 | 357 | 0.0 | 3.2 | 0.00 | 0.66 | 0.10 | 72 | 1011.7 |
| 20260507111038 | 11 | 106 | 0.0 | 3.2 | 0.00 | 0.66 | 0.10 | 73 | 1011.8 |
| 20260507110538 | 11 | 20 | 0.0 | 0.0 | 0.00 | 0.66 | 0.10 | 74 | 1011.9 |
| 20260507110049 | 11 | 20 | 0.0 | 0.0 | 0.00 | 0.66 | 0.10 | 74 | 1011.9 |
| 20260507105539 | 11 | 20 | 0.0 | 1.6 | 0.00 | 0.66 | 0.10 | 74 | 1011.7 |
| 20260507105037 | 11 | 323 | 0.0 | 1.6 | 0.00 | 0.66 | 0.10 | 72 | 1011.7 |
| 20260507104546 | 11 | 323 | 0.0 | 1.6 | 0.00 | 0.66 | 0.10 | 73 | 1011.6 |
| 20260507104035 | 11 | 323 | 0.0 | 0.0 | 0.00 | 0.66 | 0.10 | 74 | 1011.5 |
| 20260507103536 | 11 | 323 | 0.0 | 1.6 | 0.00 | 0.66 | 0.10 | 74 | 1011.4 |
| 20260507103050 | 11 | 323 | 0.0 | 3.2 | 0.00 | 0.66 | 0.10 | 74 | 1011.3 |
| 20260507102533 | 11 | 94 | 0.0 | 3.2 | 0.00 | 0.66 | 0.10 | 74 | 1011.4 |
| 20260507102032 | 11 | 94 | 0.0 | 1.6 | 0.00 | 0.66 | 0.10 | 74 | 1011.3 |
| 20260507101538 | 11 | 94 | 0.0 | 1.6 | 0.00 | 0.66 | 0.10 | 74 | 1011.2 |
| 20260507101032 | 11 | 94 | 0.0 | 3.2 | 0.00 | 0.66 | 0.10 | 74 | 1011.1 |
| 20260507100531 | 11 | 94 | 0.0 | 3.2 | 0.00 | 0.66 | 0.10 | 74 | 1011.2 |
| 20260507100031 | 11 | 331 | 0.0 | 4.8 | 0.00 | 0.66 | 0.10 | 74 | 1011.2 |
| 20260507095531 | 11 | 59 | 0.0 | 4.8 | 0.00 | 0.66 | 0.10 | 74 | 1011.1 |
| 20260507095031 | 11 | 84 | 0.0 | 3.2 | 0.00 | 0.66 | 0.10 | 74 | 1011.1 |
| 20260507094533 | 11 | 77 | 0.0 | 3.2 | 0.00 | 0.66 | 0.10 | 73 | 1011.1 |
| 20260507094029 | 11 | 77 | 0.0 | 3.2 | 0.00 | 0.66 | 0.10 | 73 | 1011.0 |
| 20260507093532 | 11 | 50 | 0.0 | 3.2 | 0.00 | 0.66 | 0.10 | 72 | 1011.0 |
| 20260507093029 | 11 | 113 | 0.0 | 1.6 | 0.00 | 0.66 | 0.10 | 70 | 1010.9 |
| 20260507092528 | 11 | 112 | 0.0 | 1.6 | 0.00 | 0.66 | 0.10 | 71 | 1010.9 |
| 20260507092027 | 11 | 112 | 0.0 | 3.2 | 0.00 | 0.66 | 0.10 | 71 | 1010.8 |
| 20260507091536 | 11 | 112 | 0.0 | 3.2 | 0.00 | 0.66 | 0.10 | 68 | 1010.7 |
| 20260507091030 | 11 | 113 | 0.0 | 1.6 | 0.00 | 0.66 | 0.10 | 69 | 1010.8 |
| 20260507090528 | 12 | 113 | 0.0 | 0.0 | 0.00 | 0.66 | 0.10 | 69 | 1010.9 |
| 20260507090033 | 12 | 113 | 0.0 | 4.8 | 0.00 | 0.66 | 0.10 | 69 | 1010.8 |
| 20260507085526 | 12 | 113 | 0.0 | 4.8 | 0.00 | 0.66 | 0.10 | 72 | 1010.9 |
| 20260507085026 | 12 | 108 | 0.0 | 3.2 | 0.00 | 0.66 | 0.10 | 69 | 1011.0 |
| 20260507084539 | 12 | 113 | 0.0 | 4.8 | 0.00 | 0.66 | 0.10 | 68 | 1010.8 |
| 20260507084025 | 12 | 305 | 0.0 | 4.8 | 0.00 | 0.66 | 0.10 | 68 | 1010.9 |
| 20260507083525 | 12 | 330 | 0.0 | 4.8 | 0.00 | 0.66 | 0.10 | 65 | 1010.7 |
| 20260507083025 | 12 | 69 | 0.0 | 4.8 | 0.00 | 0.66 | 0.10 | 59 | 1010.7 |
| 20260507082524 | 12 | 1 | 0.0 | 4.8 | 0.00 | 0.66 | 0.10 | 59 | 1010.7 |
| 20260507082024 | 12 | 77 | 0.0 | 6.4 | 0.00 | 0.66 | 0.10 | 60 | 1010.8 |
| 20260507081522 | 12 | 82 | 0.0 | 6.4 | 0.00 | 0.66 | 0.10 | 52 | 1010.7 |
| 20260507081022 | 11 | 93 | 0.0 | 3.2 | 0.00 | 0.66 | 0.10 | 45 | 1010.5 |
| 20260507080521 | 11 | 76 | 0.0 | 1.6 | 0.00 | 0.66 | 0.10 | 38 | 1010.3 |
| 20260507080021 | 11 | 76 | 0.0 | 0.0 | 0.00 | 0.66 | 0.10 | 34 | 1010.2 |
| 20260507075521 | 11 | 76 | 0.0 | 0.0 | 0.00 | 0.66 | 0.10 | 33 | 1010.2 |
| 20260507075022 | 11 | 77 | 0.0 | 1.6 | 0.00 | 0.66 | 0.10 | 34 | 1010.0 |
| 20260507074522 | 11 | 76 | 0.0 | 1.6 | 0.00 | 0.66 | 0.10 | 34 | 1010.1 |
| 20260507074022 | 11 | 76 | 0.0 | 1.6 | 0.00 | 0.66 | 0.10 | 36 | 1010.1 |
| 20260507073521 | 11 | 76 | 0.0 | 1.6 | 0.03 | 0.66 | 0.10 | 36 | 1010.1 |
| 20260507073021 | 11 | 76 | 0.0 | 0.0 | 0.03 | 0.66 | 0.10 | 38 | 1010.0 |
| 20260507072520 | 12 | 76 | 0.0 | 1.6 | 0.03 | 0.66 | 0.10 | 40 | 1010.0 |
| 20260507072020 | 12 | 77 | 0.0 | 1.6 | 0.03 | 0.66 | 0.10 | 43 | 1009.9 |
| 20260507071522 | 12 | 76 | 0.0 | 3.2 | 0.03 | 0.66 | 0.10 | 40 | 1010.0 |
| 20260507071019 | 12 | 76 | 0.0 | 4.8 | 0.03 | 0.66 | 0.10 | 43 | 1010.1 |
| 20260507070518 | 12 | 11 | 0.0 | 4.8 | 0.03 | 0.66 | 0.10 | 47 | 1010.2 |
| 20260507070018 | 12 | 103 | 0.0 | 4.8 | 0.03 | 0.66 | 0.10 | 48 | 1010.1 |
| 20260507065517 | 12 | 256 | 0.0 | 9.7 | 0.03 | 0.66 | 0.10 | 49 | 1010.0 |
| 20260507065018 | 12 | 89 | 0.0 | 9.7 | 0.03 | 0.66 | 0.10 | 50 | 1010.0 |
| 20260507064517 | 12 | 65 | 0.0 | 9.7 | 0.03 | 0.66 | 0.10 | 53 | 1010.1 |
| 20260507064017 | 12 | 337 | 0.0 | 9.7 | 0.03 | 0.66 | 0.10 | 56 | 1010.2 |
| 20260507063516 | 12 | 6 | 0.0 | 8.0 | 0.00 | 0.64 | 0.08 | 57 | 1010.3 |
| 20260507063016 | 12 | 85 | 1.6 | 8.0 | 0.00 | 0.64 | 0.08 | 53 | 1010.1 |
| 20260507062515 | 12 | 337 | 0.0 | 6.4 | 0.00 | 0.64 | 0.08 | 45 | 1010.2 |
| 20260507062015 | 12 | 326 | 0.0 | 6.4 | 0.00 | 0.64 | 0.08 | 46 | 1010.4 |
| 20260507061515 | 12 | 319 | 1.6 | 6.4 | 0.00 | 0.64 | 0.08 | 43 | 1010.4 |
| 20260507061013 | 12 | 314 | 0.0 | 3.2 | 0.00 | 0.64 | 0.08 | 35 | 1010.2 |
| 20260507060513 | 12 | 87 | 0.0 | 0.0 | 0.00 | 0.64 | 0.08 | 34 | 1010.4 |
| 20260507060019 | 12 | 87 | 0.0 | 0.0 | 0.00 | 0.64 | 0.08 | 39 | 1010.3 |
| 20260507055513 | 12 | 83 | 0.0 | 1.6 | 0.03 | 0.64 | 0.08 | 38 | 1010.2 |
| 20260507055014 | 12 | 61 | 0.0 | 1.6 | 0.03 | 0.64 | 0.08 | 40 | 1010.2 |
| 20260507054512 | 12 | 344 | 0.0 | 6.4 | 0.03 | 0.64 | 0.08 | 40 | 1010.1 |
| 20260507054014 | 12 | 99 | 0.0 | 3.2 | 0.03 | 0.64 | 0.08 | 36 | 1010.1 |
| 20260507053511 | 12 | 99 | 0.0 | 4.8 | 0.05 | 0.64 | 0.08 | 36 | 1010.1 |
| 20260507053011 | 12 | 85 | 0.0 | 4.8 | 0.08 | 0.64 | 0.08 | 34 | 1010.2 |
| 20260507052509 | 13 | 101 | 0.0 | 4.8 | 0.08 | 0.64 | 0.08 | 29 | 1010.3 |
| 20260507052009 | 13 | 24 | 0.0 | 4.8 | 0.08 | 0.64 | 0.08 | 26 | 1010.3 |
| 20260507051508 | 13 | 44 | 0.0 | 1.6 | 0.08 | 0.64 | 0.08 | 21 | 1010.1 |
| 20260507051007 | 13 | 326 | 0.0 | 3.2 | 0.08 | 0.64 | 0.08 | 22 | 1010.3 |
| 20260507050505 | 13 | 112 | 0.0 | 3.2 | 0.08 | 0.64 | 0.08 | 25 | 1010.1 |
| 20260507050017 | 13 | 112 | 0.0 | 1.6 | 0.08 | 0.64 | 0.08 | 30 | 1010.2 |
| 20260507045502 | 13 | 112 | 0.0 | 1.6 | 0.05 | 0.61 | 0.05 | 38 | 1010.2 |
| 20260507045003 | 13 | 112 | 0.0 | 6.4 | 0.05 | 0.61 | 0.05 | 44 | 1010.0 |
| 20260507044606 | 13 | 112 | 0.0 | 6.4 | 0.05 | 0.61 | 0.05 | 50 | 1010.2 |
| 20260507044058 | 14 | 95 | 0.0 | 9.7 | 0.05 | 0.61 | 0.05 | 58 | 1010.4 |
| 20260507043557 | 14 | 328 | 0.0 | 9.7 | 0.03 | 0.58 | 0.03 | 63 | 1010.3 |
| 20260507043057 | 14 | 83 | 1.6 | 9.7 | 0.00 | 0.56 | 0.00 | 67 | 1010.2 |
| 20260507042600 | 14 | 276 | 0.0 | 9.7 | 0.00 | 0.56 | 0.00 | 68 | 1009.9 |
| 20260507042057 | 14 | 100 | 0.0 | 6.4 | 0.00 | 0.56 | 0.00 | 69 | 1009.9 |
| 20260507041602 | 15 | 37 | 0.0 | 8.0 | 0.00 | 0.56 | 0.00 | 68 | 1009.9 |
| 20260507041056 | 15 | 96 | 1.6 | 8.0 | 0.00 | 0.56 | 0.00 | 69 | 1010.1 |
| 20260507040552 | 15 | 114 | 1.6 | 9.7 | 0.00 | 0.56 | 0.00 | 70 | 1010.1 |
| 20260507040052 | 15 | 320 | 0.0 | 9.7 | 0.00 | 0.56 | 0.00 | 70 | 1010.3 |
| 20260507035549 | 15 | 104 | 1.6 | 4.8 | 0.00 | 0.56 | 0.56 | 70 | 1010.1 |
| 20260507035047 | 15 | 80 | 0.0 | 4.8 | 0.00 | 0.56 | 0.56 | 70 | 1010.0 |
| 20260507034545 | 15 | 1 | 0.0 | 4.8 | 0.00 | 0.56 | 0.56 | 69 | 1009.7 |
| 20260507034044 | 15 | 106 | 0.0 | 8.0 | 0.00 | 0.56 | 0.56 | 70 | 1009.4 |
| 20260507033542 | 15 | 106 | 0.0 | 8.0 | 0.00 | 0.56 | 0.56 | 68 | 1009.3 |
| 20260507033042 | 15 | 95 | 0.0 | 4.8 | 0.00 | 0.56 | 0.56 | 68 | 1009.6 |
| 20260507032541 | 16 | 122 | 0.0 | 8.0 | 0.00 | 0.56 | 0.56 | 69 | 1009.8 |
| 20260507032037 | 16 | 49 | 0.0 | 8.0 | 0.00 | 0.56 | 0.56 | 70 | 1009.7 |
| 20260507031540 | 16 | 330 | 1.6 | 8.0 | 0.00 | 0.56 | 0.56 | 71 | 1009.6 |
| 20260507031036 | 16 | 58 | 1.6 | 6.4 | 0.00 | 0.56 | 0.56 | 71 | 1009.8 |
| 20260507030534 | 16 | 101 | 0.0 | 12.9 | 0.00 | 0.56 | 0.56 | 72 | 1009.8 |
| 20260507030032 | 16 | 113 | 0.0 | 12.9 | 0.00 | 0.56 | 0.56 | 72 | 1009.5 |
| 20260507025529 | 16 | 113 | 0.0 | 8.0 | 0.00 | 0.56 | 0.56 | 72 | 1009.4 |
| 20260507025028 | 16 | 147 | 0.0 | 6.4 | 0.00 | 0.56 | 0.56 | 72 | 1009.2 |
| 20260507024533 | 16 | 68 | 1.6 | 6.4 | 0.00 | 0.56 | 0.56 | 73 | 1009.0 |
| 20260507024025 | 16 | 323 | 0.0 | 6.4 | 0.00 | 0.56 | 0.56 | 73 | 1008.9 |
| 20260507023524 | 16 | 81 | 0.0 | 12.9 | 0.00 | 0.56 | 0.56 | 72 | 1009.2 |
| 20260507023023 | 16 | 329 | 0.0 | 14.5 | 0.00 | 0.56 | 0.56 | 72 | 1009.1 |
| 20260507022521 | 16 | 61 | 3.2 | 14.5 | 0.00 | 0.56 | 0.56 | 72 | 1009.0 |
| 20260507022019 | 16 | 97 | 0.0 | 14.5 | 0.00 | 0.56 | 0.56 | 71 | 1009.1 |
| 20260507021521 | 16 | 314 | 0.0 | 14.5 | 0.00 | 0.56 | 0.56 | 71 | 1009.0 |
| 20260507021018 | 17 | 298 | 3.2 | 9.7 | 0.00 | 0.56 | 0.56 | 71 | 1009.1 |
| 20260507020514 | 17 | 241 | 1.6 | 11.3 | 0.00 | 0.56 | 0.56 | 70 | 1009.1 |
| 20260507020013 | 17 | 115 | 1.6 | 11.3 | 0.00 | 0.56 | 0.56 | 67 | 1008.9 |
| 20260507015511 | 17 | 52 | 1.6 | 9.7 | 0.00 | 0.56 | 0.56 | 65 | 1008.7 |
| 20260507015014 | 17 | 98 | 0.0 | 8.0 | 0.00 | 0.56 | 0.56 | 63 | 1008.6 |
| 20260507014508 | 17 | 89 | 0.0 | 9.7 | 0.00 | 0.56 | 0.56 | 62 | 1008.7 |
| 20260507014007 | 17 | 95 | 1.6 | 9.7 | 0.00 | 0.56 | 0.56 | 60 | 1008.8 |
| 20260507013506 | 17 | 11 | 0.0 | 4.8 | 0.00 | 0.56 | 0.56 | 59 | 1008.6 |
| 20260507013004 | 17 | 108 | 0.0 | 4.8 | 0.00 | 0.56 | 0.56 | 59 | 1008.7 |
| 20260507012503 | 18 | 89 | 0.0 | 4.8 | 0.00 | 0.56 | 0.56 | 61 | 1008.8 |
| 20260507012001 | 18 | 100 | 0.0 | 6.4 | 0.00 | 0.56 | 0.56 | 62 | 1008.9 |
| 20260507011605 | 18 | 139 | 0.0 | 11.3 | 0.00 | 0.56 | 0.56 | 63 | 1008.8 |
| 20260507011059 | 18 | 103 | 0.0 | 11.3 | 0.00 | 0.56 | 0.56 | 64 | 1008.6 |
| 20260507010557 | 18 | 11 | 1.6 | 11.3 | 0.00 | 0.56 | 0.56 | 65 | 1008.7 |
| 20260507010056 | 18 | 100 | 3.2 | 11.3 | 0.00 | 0.56 | 0.56 | 66 | 1008.5 |
| 20260507005554 | 18 | 78 | 3.2 | 11.3 | 0.00 | 0.56 | 0.56 | 67 | 1008.6 |
| 20260507005053 | 18 | 48 | 0.0 | 3.2 | 0.00 | 0.56 | 0.56 | 65 | 1008.5 |
| 20260507004551 | 18 | 113 | 0.0 | 8.0 | 0.00 | 0.56 | 0.56 | 65 | 1008.5 |
| 20260507004050 | 19 | 314 | 0.0 | 8.0 | 0.00 | 0.56 | 0.56 | 64 | 1008.5 |
| 20260507003551 | 19 | 43 | 0.0 | 4.8 | 0.00 | 0.56 | 0.56 | 65 | 1008.5 |
| 20260507003047 | 20 | 304 | 0.0 | 11.3 | 0.00 | 0.56 | 0.56 | 63 | 1008.4 |
| 20260507002545 | 20 | 32 | 0.0 | 11.3 | 0.00 | 0.56 | 0.56 | 63 | 1008.3 |
| 20260507002044 | 20 | 318 | 0.0 | 3.2 | 0.00 | 0.56 | 0.56 | 62 | 1008.2 |
| 20260507001557 | 20 | 302 | 0.0 | 0.0 | 0.00 | 0.56 | 0.56 | 65 | 1008.1 |
| 20260507001041 | 20 | 302 | 0.0 | 0.0 | 0.00 | 0.56 | 0.56 | 66 | 1008.1 |
| 20260507000540 | 20 | 302 | 0.0 | 1.6 | 0.00 | 0.56 | 0.56 | 67 | 1008.0 |
| 20260507000053 | 20 | 302 | 0.0 | 3.2 | 0.00 | 0.56 | 0.56 | 68 | 1007.9 |
| 20260506235540 | 20 | 302 | 0.0 | 4.8 | 0.00 | 0.56 | 0.56 | 68 | 1007.7 |
| 20260506235039 | 20 | 295 | 0.0 | 4.8 | 0.00 | 0.56 | 0.56 | 68 | 1007.7 |
| 20260506234547 | 20 | 295 | 1.6 | 4.8 | 0.00 | 0.56 | 0.56 | 68 | 1007.7 |
| 20260506234037 | 20 | 307 | 0.0 | 3.2 | 0.00 | 0.56 | 0.56 | 67 | 1007.6 |
| 20260506233535 | 20 | 295 | 0.0 | 3.2 | 0.00 | 0.56 | 0.56 | 69 | 1007.4 |
| 20260506233034 | 20 | 304 | 0.0 | 3.2 | 0.00 | 0.56 | 0.56 | 68 | 1007.4 |
| 20260506232531 | 20 | 298 | 0.0 | 3.2 | 0.00 | 0.56 | 0.56 | 70 | 1007.1 |
| 20260506232029 | 20 | 306 | 0.0 | 3.2 | 0.00 | 0.56 | 0.56 | 70 | 1007.3 |
| 20260506231533 | 20 | 309 | 0.0 | 3.2 | 0.00 | 0.56 | 0.56 | 70 | 1007.1 |
| 20260506231029 | 20 | 302 | 0.0 | 3.2 | 0.00 | 0.56 | 0.56 | 70 | 1007.2 |
| 20260506230525 | 21 | 297 | 0.0 | 4.8 | 0.00 | 0.56 | 0.56 | 70 | 1007.0 |
| 20260506230028 | 21 | 298 | 1.6 | 4.8 | 0.00 | 0.56 | 0.56 | 71 | 1007.0 |
| 20260506225523 | 21 | 303 | 0.0 | 4.8 | 0.00 | 0.56 | 0.56 | 71 | 1007.1 |
| 20260506225020 | 21 | 316 | 0.0 | 1.6 | 0.00 | 0.56 | 0.56 | 70 | 1007.1 |
| 20260506224520 | 21 | 309 | 0.0 | 1.6 | 0.00 | 0.56 | 0.56 | 70 | 1007.0 |
| 20260506224017 | 21 | 309 | 0.0 | 3.2 | 0.00 | 0.56 | 0.56 | 71 | 1007.1 |
| 20260506223516 | 21 | 309 | 0.0 | 4.8 | 0.00 | 0.56 | 0.56 | 71 | 1007.0 |
| 20260506223015 | 21 | 309 | 0.0 | 8.0 | 0.00 | 0.56 | 0.56 | 71 | 1006.9 |
| 20260506222515 | 21 | 301 | 3.2 | 8.0 | 0.00 | 0.56 | 0.56 | 71 | 1006.9 |
| 20260506222015 | 21 | 308 | 0.0 | 3.2 | 0.00 | 0.56 | 0.56 | 71 | 1007.0 |
| 20260506221514 | 21 | 302 | 0.0 | 9.7 | 0.00 | 0.56 | 0.56 | 71 | 1006.9 |
| 20260506221014 | 21 | 333 | 1.6 | 9.7 | 0.00 | 0.56 | 0.56 | 71 | 1006.9 |
| 20260506220514 | 21 | 317 | 1.6 | 8.0 | 0.00 | 0.56 | 0.56 | 71 | 1006.8 |
| 20260506220015 | 21 | 311 | 0.0 | 8.0 | 0.00 | 0.56 | 0.56 | 71 | 1006.9 |
| 20260506215514 | 21 | 293 | 1.6 | 6.4 | 0.00 | 0.56 | 0.56 | 71 | 1006.9 |
| 20260506215014 | 21 | 324 | 0.0 | 8.0 | 0.00 | 0.56 | 0.56 | 71 | 1006.8 |
| 20260506214514 | 21 | 331 | 3.2 | 8.0 | 0.00 | 0.56 | 0.56 | 71 | 1006.8 |
| 20260506214014 | 21 | 305 | 0.0 | 8.0 | 0.00 | 0.56 | 0.56 | 71 | 1006.8 |
| 20260506213515 | 21 | 304 | 3.2 | 8.0 | 0.00 | 0.56 | 0.56 | 71 | 1006.8 |
| 20260506213013 | 21 | 312 | 0.0 | 8.0 | 0.00 | 0.56 | 0.56 | 71 | 1006.8 |
| 20260506212513 | 21 | 304 | 3.2 | 8.0 | 0.00 | 0.56 | 0.56 | 71 | 1006.8 |
| 20260506212011 | 21 | 295 | 0.0 | 4.8 | 0.00 | 0.56 | 0.56 | 71 | 1006.7 |
| 20260506211511 | 21 | 302 | 0.0 | 6.4 | 0.00 | 0.56 | 0.56 | 71 | 1006.5 |
| 20260506211008 | 21 | 313 | 1.6 | 8.0 | 0.00 | 0.56 | 0.56 | 71 | 1006.6 |
| 20260506210507 | 21 | 309 | 3.2 | 8.0 | 0.00 | 0.56 | 0.56 | 71 | 1006.4 |
| 20260506210005 | 21 | 292 | 3.2 | 8.0 | 0.00 | 0.56 | 0.56 | 71 | 1006.5 |
| 20260506205504 | 21 | 323 | 0.0 | 8.0 | 0.00 | 0.56 | 0.56 | 71 | 1006.4 |
| 20260506205003 | 21 | 294 | 3.2 | 8.0 | 0.00 | 0.56 | 0.56 | 71 | 1006.2 |
| 20260506204502 | 21 | 316 | 1.6 | 9.7 | 0.00 | 0.56 | 0.56 | 71 | 1006.3 |
| 20260506204101 | 21 | 305 | 1.6 | 9.7 | 0.00 | 0.56 | 0.56 | 71 | 1006.2 |
| 20260506203559 | 21 | 309 | 3.2 | 9.7 | 0.00 | 0.56 | 0.56 | 71 | 1006.2 |
| 20260506203058 | 21 | 323 | 1.6 | 9.7 | 0.00 | 0.56 | 0.56 | 71 | 1006.2 |
| 20260506202556 | 21 | 302 | 3.2 | 9.7 | 0.00 | 0.56 | 0.56 | 71 | 1006.3 |
| 20260506202155 | 21 | 309 | 3.2 | 9.7 | 0.00 | 0.56 | 0.56 | 71 | 1006.4 |
| 20260506201553 | 21 | 309 | 1.6 | 11.3 | 0.00 | 0.56 | 0.56 | 71 | 1006.5 |
| 20260506201051 | 21 | 305 | 4.8 | 11.3 | 0.00 | 0.56 | 0.56 | 71 | 1006.4 |
| 20260506200550 | 21 | 302 | 3.2 | 6.4 | 0.00 | 0.56 | 0.56 | 71 | 1006.6 |
| 20260506200048 | 21 | 311 | 1.6 | 6.4 | 0.00 | 0.56 | 0.56 | 71 | 1006.5 |
| 20260506195547 | 21 | 309 | 1.6 | 6.4 | 0.00 | 0.56 | 0.56 | 71 | 1006.5 |
| 20260506195045 | 20 | 300 | 3.2 | 9.7 | 0.00 | 0.56 | 0.56 | 71 | 1006.6 |
| 20260506194545 | 21 | 311 | 4.8 | 12.9 | 0.00 | 0.56 | 0.56 | 71 | 1006.6 |
| 20260506194044 | 20 | 305 | 3.2 | 12.9 | 0.00 | 0.56 | 0.56 | 71 | 1006.5 |
| 20260506193540 | 20 | 305 | 3.2 | 9.7 | 0.00 | 0.56 | 0.56 | 71 | 1006.6 |
| 20260506193048 | 20 | 307 | 1.6 | 8.0 | 0.00 | 0.56 | 0.56 | 71 | 1006.6 |
| 20260506192538 | 20 | 314 | 0.0 | 6.4 | 0.00 | 0.56 | 0.56 | 71 | 1006.6 |
| 20260506192036 | 20 | 305 | 1.6 | 8.0 | 0.00 | 0.56 | 0.56 | 71 | 1006.7 |
| 20260506191535 | 20 | 295 | 3.2 | 8.0 | 0.00 | 0.56 | 0.56 | 71 | 1006.8 |
| 20260506191033 | 20 | 336 | 3.2 | 8.0 | 0.00 | 0.56 | 0.56 | 71 | 1006.7 |
| 20260506190531 | 20 | 302 | 0.0 | 12.9 | 0.00 | 0.56 | 0.56 | 70 | 1006.8 |
| 20260506190030 | 20 | 308 | 1.6 | 11.3 | 0.00 | 0.56 | 0.56 | 70 | 1006.8 |
| 20260506185528 | 20 | 330 | 4.8 | 9.7 | 0.00 | 0.56 | 0.56 | 70 | 1006.8 |
| 20260506185027 | 20 | 309 | 1.6 | 8.0 | 0.00 | 0.56 | 0.56 | 70 | 1006.8 |
| 20260506184530 | 20 | 306 | 3.2 | 9.7 | 0.00 | 0.56 | 0.56 | 69 | 1006.9 |
| 20260506184025 | 20 | 305 | 4.8 | 9.7 | 0.00 | 0.56 | 0.56 | 69 | 1007.0 |
| 20260506183523 | 19 | 312 | 4.8 | 8.0 | 0.00 | 0.56 | 0.56 | 69 | 1007.0 |
| 20260506183022 | 19 | 289 | 1.6 | 8.0 | 0.00 | 0.56 | 0.56 | 68 | 1007.0 |
| 20260506182519 | 19 | 313 | 3.2 | 8.0 | 0.00 | 0.56 | 0.56 | 67 | 1007.1 |
| 20260506182022 | 19 | 309 | 3.2 | 8.0 | 0.00 | 0.56 | 0.56 | 67 | 1007.3 |
| 20260506181533 | 19 | 328 | 1.6 | 12.9 | 0.00 | 0.56 | 0.56 | 66 | 1007.2 |
| 20260506181017 | 19 | 299 | 4.8 | 12.9 | 0.00 | 0.56 | 0.56 | 68 | 1007.2 |
| 20260506180516 | 19 | 317 | 3.2 | 9.7 | 0.00 | 0.56 | 0.56 | 67 | 1007.3 |
| 20260506180013 | 18 | 306 | 1.6 | 9.7 | 0.00 | 0.56 | 0.56 | 66 | 1007.3 |
| 20260506175514 | 18 | 303 | 4.8 | 9.7 | 0.00 | 0.56 | 0.56 | 67 | 1007.3 |
| 20260506175010 | 18 | 288 | 3.2 | 8.0 | 0.00 | 0.56 | 0.56 | 63 | 1007.4 |